Temp
-7 -7 -6 -6 -7 -7 -6 -6 -7 -7 -7 -7 -7 -8 -7 -7 -7 -7 -7 -7 -7 -7 -6 -7 -7 -7 -7 -6 -6 -6 -6 -7 -7 -7 -7 -7 -7 -7 -7 -7 -7 -6 -6 -6
-8 -6 -7 -7 -7 -7 -8 -8 -7 -7 -7 -7 -7 -7 -7 -7 -7 -7 -7 -7 -7 -7 -7 -6 -7 -7 -7 -6 -6 -6 -6 -7 -7 -7 -7 -7 -7 -7 -7 -7 -7 -6 -6 -6
-8 -7 -7 -7 -7 -8 -9 -8 -8 -8 -7 -7 -7 -7 -7 -6 -7 -6 -6 -7 -7 -7 -7 -6 -7 -7 -6 -6 -7 -7 -7 -8 -8 -7 -7 -7 -7 -7 -7 -7 -7 -6 -6 -6
-9 -8 -8 -7 -7 -8 -8 -8 -8 -8 -8 -7 -7 -6 -6 -6 -7 -7 -7 -7 -7 -7 -7 -7 -8 -7 -6 -6 -7 -7 -7 -8 -8 -7 -7 -7 -7 -7 -7 -7 -7 -7 -7 -6
-8 -9 -8 -8 -8 -9 -9 -8 -8 -8 -8 -8 -8 -7 -5 -6 -7 -7 -7 -7 -7 -7 -7 -6 -7 -7 -7 -7 -7 -8 -8 -8 -8 -8 -7 -7 -7 -7 -7 -7 -8 -8 -8 -7
-10 -10 -10 -9 -9 -9 -9 -9 -9 -8 -8 -7 -5 -7 -5 -6 -7 -7 -7 -6 -6 -7 -7 -6 -7 -7 -7 -7 -8 -8 -8 -8 -8 -7 -7 -7 -7 -8 -7 -7 -8 -8 -8 -7
-10 -11 -10 -10 -9 -9 -9 -9 -9 -8 -8 -6 -6 -7 -6 -6 -6 -6 -6 -7 -7 -7 -7 -6 -7 -6 -7 -8 -8 -8 -8 -8 -8 -7 -7 -7 -8 -8 -8 -7 -8 -7 -7 -7
-10 -10 -10 -10 -9 -9 -9 -9 -9 -9 -8 -6 -7 -7 -7 -6 -6 -6 -7 -7 -6 -5 -6 -7 -7 -6 -7 -8 -8 -8 -8 -8 -8 -7 -7 -7 -6 -9 -9 -7 -7 -7 -7 -7
-11 -10 -10 -10 -9 -9 -9 -9 -9 -9 -8 -8 -7 -7 -6 -7 -6 -7 -8 -9 -8 -7 -7 -7 -7 -7 -8 -8 -8 -8 -8 -9 -8 -7 -5 -6 -8 -9 -9 -8 -7 -7 -7 -7
-11 -11 -10 -10 -10 -10 -9 -9 -9 -9 -9 -8 -7 -7 -7 -7 -8 -6 -7 -8 -8 -7 -7 -7 -7 -8 -9 -9 -9 -8 -9 -9 -8 -7 -6 -7 -8 -9 -9 -7 -7 -7 -7 -7
-12 -12 -10 -10 -9 -9 -9 -9 -9 -9 -9 -8 -7 -8 -8 -7 -7 -7 -8 -8 -8 -8 -7 -7 -7 -8 -9 -9 -9 -9 -9 -9 -8 -8 -8 -9 -9 -9 -8 -8 -7 -7 -7 -7
-11 -11 -11 -10 -9 -9 -9 -9 -9 -9 -8 -8 -8 -8 -8 -8 -8 -8 -8 -8 -8 -8 -8 -8 -8 -9 -9 -9 -9 -9 -9 -9 -8 -8 -9 -9 -8 -9 -8 -8 -7 -7 -7 -7
-11 -10 -10 -10 -9 -9 -11 -10 -9 -9 -9 -8 -8 -8 -9 -9 -8 -8 -8 -9 -9 -8 -8 -8 -9 -9 -8 -9 -8 -9 -9 -9 -9 -9 -9 -9 -8 -8 -8 -8 -8 -7 -7 -7
-12 -11 -10 -10 -10 -11 -10 -9 -9 -9 -9 -8 -8 -8 -8 -8 -8 -8 -9 -10 -9 -9 -9 -9 -9 -9 -8 -9 -9 -9 -9 -9 -9 -9 -9 -9 -9 -9 -8 -8 -8 -8 -7 -7
-12 -11 -10 -10 -10 -10 -10 -10 -10 -9 -9 -9 -9 -9 -9 -8 -7 -8 -9 -10 -9 -9 -9 -9 -9 -9 -8 -9 -9 -9 -9 -9 -9 -9 -9 -9 -9 -10 -10 -10 -10 -8 -8 -8
-11 -11 -10 -10 -10 -10 -10 -10 -9 -9 -9 -9 -9 -9 -9 -9 -8 -8 -9 -9 -10 -9 -9 -9 -9 -9 -9 -9 -9 -9 -9 -9 -9 -9 -10 -10 -10 -10 -10 -10 -10 -9 -9 -8
-11 -11 -11 -10 -10 -10 -10 -11 -10 -9 -9 -9 -9 -9 -9 -9 -9 -9 -8 -8 -9 -9 -9 -9 -9 -9 -9 -9 -9 -9 -9 -10 -10 -10 -10 -10 -10 -10 -10 -10 -10 -10 -10 -9
-11 -12 -11 -11 -10 -10 -10 -10 -10 -10 -10 -10 -10 -9 -9 -9 -9 -9 -9 -8 -8 -10 -9 -9 -9 -10 -10 -10 -10 -10 -10 -10 -10 -10 -10 -10 -9 -10 -10 -10 -10 -10 -10 -10
-13 -11 -12 -11 -11 -10 -10 -10 -10 -10 -10 -10 -9 -10 -10 -9 -9 -9 -10 -10 -11 -10 -10 -10 -10 -10 -10 -10 -10 -10 -10 -10 -10 -10 -10 -10 -10 -10 -11 -10 -10 -10 -10 -10
-13 -13 -11 -13 -13 -11 -10 -11 -11 -11 -11 -11 -10 -10 -11 -10 -10 -10 -10 -11 -12 -10 -10 -10 -10 -10 -10 -10 -10 -10 -10 -10 -10 -10 -11 -11 -10 -6 -9 -10 -11 -10 -11 -10
-13 -13 -13 -12 -12 -10 -11 -11 -11 -11 -11 -11 -11 -11 -10 -10 -11 -11 -11 -11 -11 -11 -10 -10 -10 -10 -10 -11 -11 -11 -11 -10 -10 -10 -10 -10 -9 -8 -8 -9 -10 -11 -11 -11
-13 -14 -14 -13 -12 -12 -12 -12 -11 -10 -10 -10 -12 -11 -10 -10 -12 -12 -12 -12 -11 -11 -10 -10 -10 -10 -11 -11 -11 -11 -11 -10 -10 -10 -10 -10 -9 -10 -7 -9 -9 -11 -11 -11
-13 -13 -13 -13 -13 -12 -12 -12 -12 -12 -12 -12 -11 -11 -11 -11 -10 -12 -12 -11 -11 -11 -11 -11 -11 -11 -11 -11 -11 -11 -10 -10 -10 -10 -10 -9 -9 -8 -9 -9 -10 -11 -11 -10
-13 -13 -13 -13 -13 -12 -12 -12 -13 -12 -12 -12 -12 -12 -12 -12 -12 -12 -12 -12 -11 -11 -11 -11 -11 -11 -11 -11 -11 -11 -10 -10 -10 -10 -10 -10 -9 -9 -10 -10 -11 -10 -10 -10
-13 -13 -13 -13 -12 -13 -11 -12 -13 -13 -13 -12 -12 -12 -13 -12 -12 -12 -12 -12 -12 -12 -11 -11 -11 -11 -11 -11 -11 -11 -10 -10 -10 -10 -10 -9 -9 -9 -10 -8 -10 -11 -11 -10
-13 -14 -13 -13 -13 -13 -13 -13 -13 -13 -13 -13 -12 -12 -12 -12 -11 -11 -11 -11 -11 -11 -11 -11 -11 -11 -11 -11 -11 -11 -10 -11 -10 -10 -10 -10 -9 -9 -10 -10 -10 -10 -10 -10
Height
5890 5887 5890 5894 5896 5899 5901 5903 5903 5907 5912 5915 5916 5916 5916 5914 5912 5911 5906 5906 5908 5911 5912 5911 5911 5910 5908 5905 5901 5898 5893 5892 5889 5887 5884 5880 5880 5879 5877 5875 5872 5872 5872 5870
5881 5881 5888 5890 5890 5891 5894 5896 5899 5903 5906 5908 5908 5908 5909 5911 5909 5911 5908 5908 5908 5907 5908 5910 5909 5908 5906 5903 5898 5894 5893 5891 5887 5885 5883 5880 5877 5877 5875 5873 5871 5870 5868 5869
5871 5880 5883 5884 5885 5886 5889 5892 5895 5896 5898 5898 5900 5900 5901 5905 5904 5906 5906 5904 5904 5903 5903 5905 5906 5904 5904 5901 5896 5892 5891 5888 5885 5883 5881 5878 5875 5873 5872 5870 5868 5868 5866 5865
5861 5870 5874 5878 5879 5884 5885 5890 5891 5891 5893 5893 5897 5893 5895 5898 5900 5901 5901 5898 5900 5898 5897 5899 5900 5900 5901 5899 5894 5891 5889 5886 5884 5881 5877 5875 5874 5871 5868 5868 5863 5863 5863 5863
5853 5860 5865 5869 5874 5879 5881 5885 5886 5885 5886 5886 5888 5888 5890 5894 5896 5895 5895 5893 5894 5894 5893 5894 5897 5895 5896 5895 5891 5889 5887 5885 5882 5879 5876 5870 5867 5867 5864 5863 5861 5860 5861 5860
5845 5853 5857 5863 5870 5874 5877 5878 5879 5879 5880 5877 5884 5884 5886 5888 5891 5891 5888 5890 5893 5891 5891 5892 5890 5891 5892 5891 5889 5887 5884 5882 5879 5875 5872 5868 5863 5863 5860 5860 5860 5859 5858 5857
5839 5843 5850 5857 5863 5868 5871 5872 5872 5872 5873 5874 5881 5881 5882 5884 5888 5887 5888 5887 5886 5886 5887 5889 5890 5889 5887 5886 5886 5884 5880 5876 5874 5870 5867 5862 5856 5857 5856 5856 5857 5856 5853 5853
5834 5837 5842 5848 5853 5860 5863 5866 5865 5865 5868 5874 5874 5876 5880 5881 5883 5884 5883 5881 5881 5882 5883 5883 5886 5886 5884 5882 5881 5879 5875 5870 5867 5865 5860 5854 5852 5853 5852 5853 5854 5853 5851 5851
5827 5828 5837 5842 5848 5853 5856 5857 5862 5862 5865 5866 5868 5873 5875 5875 5875 5875 5872 5873 5875 5877 5879 5880 5880 5879 5879 5878 5876 5874 5871 5866 5864 5860 5856 5841 5848 5851 5850 5850 5852 5850 5850 5851
5821 5822 5831 5834 5841 5846 5850 5854 5856 5857 5859 5860 5864 5868 5868 5871 5865 5868 5871 5873 5874 5875 5874 5874 5874 5875 5875 5874 5873 5870 5868 5866 5861 5852 5846 5839 5843 5849 5849 5846 5849 5850 5848 5847
5804 5814 5821 5828 5830 5837 5844 5846 5849 5853 5855 5857 5861 5864 5861 5865 5867 5867 5866 5869 5868 5869 5868 5868 5870 5872 5872 5871 5870 5868 5867 5865 5860 5854 5847 5846 5847 5849 5846 5844 5846 5847 5847 5844
5805 5808 5813 5819 5824 5831 5836 5839 5843 5846 5848 5850 5854 5858 5855 5860 5859 5862 5861 5860 5861 5859 5862 5864 5865 5867 5867 5867 5867 5866 5864 5862 5858 5854 5853 5850 5851 5848 5847 5847 5845 5845 5844 5841
5799 5805 5808 5814 5819 5823 5820 5825 5836 5841 5843 5844 5848 5850 5846 5847 5853 5850 5852 5856 5856 5860 5857 5860 5861 5862 5863 5864 5863 5862 5861 5860 5857 5854 5853 5851 5850 5849 5847 5847 5844 5844 5843 5840
5790 5798 5802 5806 5811 5816 5818 5821 5829 5835 5838 5839 5841 5842 5840 5842 5847 5839 5815 5840 5852 5854 5856 5855 5857 5857 5860 5860 5859 5858 5858 5856 5855 5853 5852 5851 5849 5845 5844 5843 5841 5841 5841 5838
5785 5790 5795 5800 5804 5811 5814 5814 5820 5823 5829 5833 5835 5833 5833 5834 5839 5835 5836 5825 5842 5847 5850 5849 5850 5853 5855 5855 5855 5854 5853 5853 5852 5851 5851 5849 5847 5845 5841 5839 5837 5837 5835 5834
5780 5786 5790 5795 5801 5807 5809 5805 5814 5819 5822 5823 5826 5825 5822 5821 5824 5826 5830 5833 5835 5841 5843 5843 5846 5847 5849 5849 5849 5850 5849 5850 5851 5848 5846 5847 5845 5843 5840 5838 5835 5833 5830 5829
5778 5783 5787 5790 5794 5798 5802 5803 5806 5810 5806 5812 5813 5818 5817 5820 5825 5828 5832 5830 5831 5831 5833 5839 5841 5842 5845 5846 5846 5845 5847 5847 5846 5844 5844 5843 5842 5841 5839 5837 5832 5827 5826 5826
5776 5779 5782 5785 5791 5794 5798 5801 5800 5798 5800 5804 5805 5810 5812 5817 5817 5820 5822 5824 5827 5830 5834 5835 5836 5839 5840 5840 5840 5840 5840 5840 5840 5839 5838 5835 5833 5832 5832 5831 5829 5828 5824 5823
5769 5775 5777 5781 5784 5788 5791 5788 5790 5792 5793 5793 5789 5798 5801 5804 5804 5807 5810 5814 5820 5824 5827 5829 5832 5833 5834 5834 5835 5833 5831 5831 5831 5829 5823 5822 5819 5815 5816 5821 5824 5824 5822 5818
5766 5769 5774 5776 5775 5781 5786 5780 5783 5783 5783 5786 5776 5779 5788 5792 5792 5797 5801 5807 5812 5818 5822 5823 5824 5825 5825 5825 5824 5823 5823 5824 5821 5816 5812 5811 5801 5780 5801 5800 5807 5817 5816 5814
5761 5765 5766 5770 5775 5774 5775 5773 5776 5779 5778 5783 5779 5764 5771 5781 5786 5793 5794 5801 5809 5812 5815 5818 5818 5816 5816 5815 5813 5811 5812 5811 5810 5808 5801 5803 5789 5779 5774 5781 5789 5799 5807 5807
5754 5758 5760 5763 5763 5760 5761 5761 5772 5773 5770 5774 5773 5770 5770 5770 5786 5791 5792 5800 5806 5807 5808 5809 5810 5809 5807 5806 5806 5803 5802 5798 5798 5798 5793 5789 5783 5761 5754 5759 5775 5784 5794 5797
5748 5752 5755 5756 5757 5759 5759 5752 5759 5768 5768 5770 5773 5773 5775 5776 5775 5785 5792 5795 5798 5799 5799 5799 5799 5797 5794 5793 5795 5793 5792 5789 5786 5783 5781 5778 5778 5748 5710 5743 5765 5774 5783 5786
5744 5746 5746 5751 5753 5752 5748 5748 5749 5754 5757 5760 5765 5767 5772 5776 5782 5784 5784 5785 5787 5788 5788 5788 5785 5784 5782 5781 5779 5781 5779 5777 5776 5773 5771 5770 5772 5765 5756 5754 5762 5769 5773 5777
5739 5740 5742 5743 5742 5742 5744 5738 5740 5742 5749 5754 5757 5763 5767 5767 5769 5770 5772 5775 5777 5777 5776 5776 5775 5772 5770 5769 5767 5765 5767 5765 5762 5759 5762 5765 5767 5763 5759 5746 5753 5761 5764 5765
5734 5735 5735 5737 5736 5736 5736 5726 5738 5735 5739 5746 5750 5752 5755 5758 5758 5760 5762 5764 5765 5765 5764 5763 5762 5760 5758 5757 5754 5754 5753 5752 5754 5751 5750 5754 5756 5756 5750 5748 5749 5751 5750 5753
Wind_Speed
25 31 31 26 24 21 19 21 19 16 15 16 15 13 22 25 28 8 24 29 29 31 23 26 23 20 13 19 20 21 25 27 29 29 26 21 18 16 14 10 10 8 6 8
32 34 25 24 25 23 13 11 20 24 25 28 29 29 29 28 24 14 18 29 33 29 29 22 18 13 15 19 23 25 25 26 27 27 26 27 25 18 17 13 9 11 8 9
39 30 24 24 26 23 17 22 20 25 31 33 29 36 38 22 11 20 18 20 24 28 30 27 8 12 22 22 24 27 25 26 25 27 27 27 23 27 19 16 12 10 11 9
40 30 27 27 26 15 17 13 16 24 22 23 24 30 23 14 8 18 9 18 27 32 35 34 14 16 21 21 25 26 25 24 24 28 30 28 24 29 16 17 18 15 12 11
35 26 23 19 20 19 23 27 22 28 22 25 26 27 22 15 13 17 28 22 22 28 36 31 17 22 28 22 24 25 25 25 27 27 28 33 31 31 15 14 13 17 15 13
30 26 22 21 21 18 23 30 25 31 28 32 19 21 12 19 18 19 31 27 24 33 37 33 22 30 27 20 22 24 24 24 28 28 28 32 39 33 11 11 13 14 14 14
33 31 29 25 24 21 25 25 30 31 30 24 3 8 4 7 15 23 26 34 38 40 27 26 29 31 23 18 20 24 27 29 26 30 33 36 41 23 7 10 13 13 10 12
34 37 32 31 29 26 21 27 35 30 22 12 4 17 12 15 17 24 28 32 34 27 29 34 32 24 22 17 22 26 28 26 30 32 37 42 26 10 6 7 10 10 10 10
30 27 24 22 31 31 28 34 24 23 18 20 18 12 15 16 22 33 21 24 24 27 25 21 19 18 14 17 23 25 24 26 30 33 42 25 13 12 6 2 5 8 8 9
43 40 29 28 30 28 29 23 27 26 27 27 22 14 19 18 27 29 25 22 26 23 20 21 17 13 12 18 22 21 20 22 29 39 38 8 15 9 6 4 3 7 9 11
45 40 32 32 34 30 31 33 26 26 23 17 13 12 22 21 27 30 29 24 27 19 19 19 16 14 14 18 20 16 15 19 24 28 18 12 3 4 4 2 5 8 9 9
34 36 38 27 34 27 27 35 32 24 31 32 28 23 23 15 23 29 35 34 29 17 17 15 15 14 15 17 16 14 14 15 21 24 4 7 5 7 6 5 5 7 8 8
29 30 33 34 28 28 32 36 30 26 17 34 32 28 27 20 30 39 44 34 34 15 17 14 15 16 18 16 16 14 12 12 15 18 6 9 15 13 11 10 7 9 10 10
22 31 34 37 31 27 29 31 27 31 26 25 30 34 35 37 32 40 40 21 18 23 19 18 20 20 18 15 15 15 10 11 14 15 12 10 16 19 11 12 10 13 14 13
17 35 35 34 38 26 27 27 32 30 31 29 31 27 33 38 41 40 33 32 18 15 13 12 12 15 14 16 16 15 12 12 14 16 15 15 14 14 11 11 15 16 14 14
35 35 36 35 33 29 23 22 29 40 32 37 37 36 40 42 41 49 35 23 19 20 15 13 14 15 17 17 17 15 16 16 17 19 20 18 19 18 18 17 20 18 17 14
34 40 35 34 33 32 25 25 23 27 42 41 40 36 44 43 41 42 38 33 32 23 19 17 18 20 20 20 20 20 21 21 21 26 27 27 26 25 24 23 23 15 14 14
24 30 37 38 38 37 33 27 28 37 35 36 36 40 39 41 41 39 31 32 26 23 17 19 22 23 24 26 26 26 26 28 30 32 33 34 31 28 26 25 22 17 12 14
28 34 32 35 35 41 34 39 37 33 34 35 33 34 39 35 30 28 21 20 20 19 23 20 25 25 27 28 30 30 35 35 35 36 38 41 38 34 25 24 26 22 15 15
31 35 36 24 21 32 42 42 39 36 43 46 25 32 39 50 29 24 23 24 17 15 21 23 27 30 31 32 35 36 36 39 40 42 42 45 54 37 26 25 24 28 23 19
31 29 32 24 33 37 41 43 42 40 46 46 51 47 44 30 21 30 34 20 19 21 27 30 32 35 36 35 38 42 43 45 43 44 48 49 61 60 59 46 30 25 28 22
28 33 34 34 33 46 44 44 45 47 50 48 48 57 29 17 13 7 5 15 23 26 29 33 35 38 39 38 41 44 46 50 50 49 50 52 58 73 58 57 32 24 27 25
29 34 37 40 39 35 43 44 41 36 36 35 35 33 30 15 5 13 17 20 23 28 30 33 35 39 42 44 47 49 49 50 50 50 50 49 49 42 16 39 28 24 27 25
28 35 40 30 37 37 30 29 29 39 40 33 28 18 19 22 24 24 25 28 31 35 38 39 43 46 48 52 54 53 52 50 47 47 47 43 33 29 6 17 19 22 23 25
23 22 26 24 27 36 22 23 36 28 28 30 32 31 30 32 32 35 37 38 40 43 47 48 51 55 56 56 56 54 50 48 48 48 43 38 29 27 31 20 19 24 23 23
22 23 20 23 31 28 30 39 31 22 27 28 33 37 37 38 39 41 46 48 49 50 53 52 54 56 55 55 53 49 48 48 46 45 43 37 31 26 32 32 33 33 24 29
Wind_Direction
250 242 236 236 238 240 227 225 206 203 199 231 246 251 244 259 283 329 303 302 300 307 315 320 326 331 335 350 348 341 340 355 3 1 7 13 14 4 349 342 334 315 263 241
245 247 247 243 234 236 213 244 219 210 209 227 233 242 239 247 264 224 253 268 276 292 300 304 307 327 322 337 337 338 342 346 353 353 2 12 3 354 343 333 325 308 287 256
257 252 255 243 234 227 218 229 232 236 218 223 239 242 247 261 271 244 236 259 266 283 288 297 303 323 322 321 326 336 344 341 348 344 346 352 346 354 335 324 320 316 299 275
258 257 243 241 222 239 266 279 245 269 239 250 239 254 252 212 243 265 245 244 256 272 277 300 294 332 342 308 316 329 336 332 337 337 335 341 348 344 333 326 319 324 311 277
243 247 224 218 224 217 240 247 238 249 235 245 246 251 262 215 230 260 244 232 261 269 273 280 295 330 324 315 311 320 327 321 329 327 328 333 332 335 326 327 319 308 300 285
244 233 202 212 223 234 250 248 250 248 233 245 258 254 292 211 206 245 257 250 238 246 252 271 305 321 317 307 304 309 315 316 319 324 325 325 320 327 315 316 307 303 288 276
240 234 209 211 223 221 238 243 245 250 241 259 150 259 14 199 216 259 260 264 269 270 267 282 303 314 308 294 296 304 309 317 320 324 324 321 312 316 286 311 310 315 308 295
246 239 223 203 215 219 231 235 245 251 242 199 242 271 305 273 253 264 271 268 263 252 288 294 296 297 289 290 298 308 315 320 325 328 327 315 262 287 266 311 316 331 327 322
244 251 233 230 219 218 227 239 233 241 242 241 237 238 251 250 239 237 229 242 272 294 287 286 299 282 283 289 302 315 321 328 331 330 326 287 283 251 243 276 305 346 340 329
237 255 239 221 226 237 234 249 223 221 237 237 223 242 255 233 258 251 262 256 260 277 281 292 280 275 275 291 307 313 329 329 340 340 343 285 258 207 234 190 293 307 326 339
230 234 245 231 206 217 230 239 240 218 225 228 225 251 255 251 244 247 250 239 254 262 289 283 269 262 268 289 301 309 315 328 348 351 6 72 65 260 230 203 280 304 317 345
221 226 238 241 206 213 240 239 248 246 215 221 231 235 244 247 211 228 232 230 228 244 269 253 254 263 278 283 294 297 308 328 343 346 316 44 323 327 319 294 284 289 311 328
223 214 237 237 216 213 230 209 235 248 253 222 229 239 264 253 244 239 229 225 235 263 257 251 257 266 273 284 286 290 306 336 343 352 338 337 336 333 317 309 298 296 303 311
209 209 223 224 222 218 229 207 213 225 238 239 231 240 259 257 257 263 228 207 217 226 237 243 257 270 277 276 273 284 293 324 328 345 356 345 333 330 302 295 297 294 294 301
210 198 211 225 225 218 248 212 219 214 221 234 253 254 253 253 247 268 249 220 192 213 225 237 250 263 270 274 263 274 274 297 311 321 333 334 334 336 353 326 299 275 282 294
204 202 209 216 218 214 220 257 210 218 210 229 227 239 243 237 241 251 263 276 193 208 215 242 247 253 258 268 276 266 285 294 307 308 310 317 315 328 329 327 328 281 267 290
208 212 216 221 216 216 220 237 224 220 215 228 226 232 250 255 255 263 270 264 258 214 226 237 248 259 267 270 273 273 278 292 295 297 301 306 306 310 313 319 321 295 252 270
226 217 226 225 223 227 225 233 235 234 236 234 235 238 251 250 254 257 262 265 246 209 228 238 249 258 263 265 275 281 284 287 289 291 291 288 286 287 294 303 309 314 269 270
252 229 231 229 219 222 222 229 239 243 238 232 227 233 239 230 218 229 248 215 202 216 234 244 254 258 264 267 269 271 282 286 290 286 279 278 264 255 258 279 291 290 277 279
245 253 251 263 225 223 223 234 237 245 247 238 226 194 229 236 205 219 224 203 209 228 241 251 259 269 272 273 275 278 281 285 286 281 279 277 264 232 249 238 258 278 278 274
234 251 253 246 227 230 233 244 247 255 260 264 260 261 221 235 233 260 208 190 212 226 239 249 259 267 271 276 280 285 287 288 289 288 285 288 290 294 233 284 237 254 267 268
219 229 238 245 240 232 241 252 249 251 261 268 273 273 271 189 219 253 239 223 234 240 247 256 262 265 268 274 280 284 286 287 288 289 289 289 293 290 265 264 223 233 253 262
225 236 240 244 248 249 245 257 257 258 265 268 269 277 286 293 256 263 258 258 257 258 259 262 265 271 275 278 279 284 286 286 286 287 288 292 304 327 96 202 204 230 247 259
244 250 240 260 254 251 257 233 257 258 266 269 272 280 283 266 262 256 256 260 263 266 269 271 274 276 279 281 283 285 285 284 284 282 286 294 310 313 253 193 218 241 254 263
259 265 254 267 259 245 241 260 236 240 245 256 260 261 263 265 264 267 267 267 269 272 277 275 275 277 281 282 283 285 284 284 286 289 289 294 299 294 294 253 238 251 254 263
263 283 283 301 274 268 268 290 245 230 234 247 261 272 272 271 271 268 265 267 269 272 277 279 279 277 280 281 283 284 284 286 287 289 290 290 291 282 283 281 268 267 245 258